User: anonymous   Login
Location: Contre
(49.7477°N, 2.0963°E)
Time: 21:15:54
(UTC+00:00)
Language:

METEOR 2-5 DEB - Orbit

View from above orbital plane
View from above orbital plane
View from above satellite
View from above satellite

Ground track
Ground track

The orbit data is extracted from the following two-line orbital elements,

1 35255U 79095W   24058.25219938  .00004720  00000-0  18796-2 0  9994
2 35255  81.2046 244.9923 0002502  15.7259 344.3999 14.28493823831685
Epoch (UTC): 27 February 2024 06:03:10
Eccentricity: 0.0002502
inclination: 81.2046°
perigee height: 795 km
apogee height: 798 km
right ascension of ascending node: 244.9923°
argument of perigee: 15.7259°
revolutions per day: 14.28493823
mean anomaly at epoch: 344.3999°
orbit number at epoch: 83168

The dashed part of the orbit path shows where the satellite is in the earth's shadow,  

DLR